Showing default

COSMOS 2585, 63288

Orbit data source: Space-Track

COSMOS 2585, 63288 is a payload satellite owned by VVKO VKS (CIS) in LEO that was launched on Sun, 16 Mar 2025 UTC via an ANGARA-1.2 launch vehicle from the Plesetsk Missile And Space Complex (PKMTR). Payload-class satellites include a variety of spacecraft equipped with specific instruments for various scientific and technological missions. These include communications satellites like Starlink; space stations such as the ISS; scientific satellites like the Hubble; Earth observation satellites from companies like Planet Labs, Umbra, and HawkEye 360; GPS; miniature CubeSats for education and research; and military/defense satellites.

Loading next visibility...
Identifier
63288, 2025-054A
Orbit
LEO
Country
Flag of CISCIS
Related business
Manufacturer
Resehetnev ISS
Mission
Operational Defense Communications
Bus & Motor
STRELA-3M, Unknown motor
Mass
280 kg wet, 280 kg dry
Launch date (UTC)
2025-03-16 (1 year ago)
Launch vehicle
ANGARA-1.2
Launch site
Plesetsk Missile And Space Complex (PKMTR)
Object type
Payload
Rocket body
Debris
Shape & HBR
Cyl + 1 Ant, 3.5 m
Radar Cross Section
1.583 m², Large (>1 m²)

Expand to show TLE details & history
Last TLE update: 8 hours ago

TLE from 8 hours ago
0 COSMOS 2585
1 63288U 25054A   26257.81440610  .00000030  00000-0  14681-3 0  9995
2 63288  82.4975  22.8397 0024517 197.5862 162.4371 12.42870873 67999
Epoch: 2026-09-14T19:32Z
TLE epoch observation values (Epoch: 2026-09-14T19:32:44.687Z)
Latitude
-0.00002°
Longitude
95.8642°
Altitude
1,515.565 km
Speed
7.099 km/s
True Right ascension
01h 31m 21s
True Declination
0° 00' 00"
Sunlit
Object was in full shadow at epoch
Visualization orbit readout
Latitude
Unknown
Longitude
Unknown
Altitude
Unknown
Speed
Unknown
Apparent Right ascension
Unknown
Apparent Declination
Unknown
Sunlit
N/A
Visualization observer readout
Local Sidereal Time
20:26:32
Azimuth
Unknown
Elevation
Unknown
Doppler factor
Unknown
Orbital elements
Apogee altitude
1,511.103 km
Perigee altitude
1,472.513 km
Semi-major axis
7,869.945 km
Eccentricity
0.00245
Inclination
82.4975°
RAAN
22.8397°
Arg. of periapsis
197.5862°
True anomaly
162.52163°
Mean anomaly
162.4371°
Eccentric anomaly
162.47939°
Mean motion
3.10875 °/min
Orbital period
115.8 mins
BSTAR
0.00014681
Loading maneuver chart data...
Computing Atmospheric mass density...
Loading historical data...
Loading historical data...
Loading historical data...
Loading historical data...
Loading historical data...
Loading historical data...
Loading historical data...
Other satellites on launch #54 in the year 2025 (2025-03-16 UTC)

Documentation

Showing up to 5 results
|